Deelen, Netherlands

11:46 PM CEST on July 25, 2017 (GMT +0200)
Deelen Air Base

Weather History for EHDL - July, 2013

Change the Weather History Date:

Saturday, July 6, 2013

  Actual Average Record
Temperature  
Mean Temperature 66 °F -  
Max Temperature 78 °F 70 °F 87 °F (2001)
Min Temperature 55 °F 57 °F 48 °F (2010)
Cooling Degree Days 2    
Growing Degree Days 16 (Base 50)    
Moisture  
Dew Point 55 °F    
Average Humidity 68    
Maximum Humidity 94    
Minimum Humidity 44    
Precipitation  
Precipitation 0.00 in - - ()
Sea Level Pressure  
Sea Level Pressure 30.41 in    
Wind  
Wind Speed 6 mph ()    
Max Wind Speed 9 mph    
Max Gust Speed -    
Visibility 6.2 miles    
Events      
Averages and records for this station are not official NWS values.
T = Trace of Precipitation, MM = Missing Value Source: Averaged Metar Reports

Daily Weather History Graph

Daily Weather History Graph

Search for Another Location

Airport or City:

Trip Planner

Search our weather history database for the weather conditions in past years. The results will help you decide how hot, cold, wet, or windy it might be!

Date:

Astronomy

Jul. 06, 2013 Rise Set
Actual Time 5:24 AM CEST 9:57 PM CEST
Civil Twilight 4:36 AM CEST 10:44 PM CEST
Nautical Twilight 3:23 AM CEST 11:58 PM CEST
Astronomical Twilight 2:13 AM CEST 1:08 AM CEST
Moon 4:05 AM CEST (7/6) 8:18 PM CEST (7/6)
Length of Visible Light 18h 08m
Length of Day
16h 33m
Waning Crescent, 3% of the Moon is Illuminated
Jul 6
Waning Crescent
Jul 8
New
Jul 16
First Quarter
Jul 22
Full
Jul 29
Last Quarter

Hourly Weather History & Observations

Time (CEST) Temp. Dew Point Humidity Pressure Visibility Wind Dir Wind Speed Gust Speed Precip Events Conditions
12:25 AM 57.2 °F 55.4 °F 94% 30.42 in 6.2 mi North 3.5 mph - N/A   Scattered Clouds
12:55 AM 59.0 °F 55.4 °F 88% 30.42 in 6.2 mi NE 8.1 mph - N/A   Unknown
1:25 AM 59.0 °F 55.4 °F 88% 30.42 in 6.2 mi NE 9.2 mph - N/A   Unknown
1:55 AM 59.0 °F 53.6 °F 82% 30.45 in 6.2 mi NE 9.2 mph - N/A   Unknown
2:25 AM 57.2 °F 53.6 °F 88% 30.42 in 6.2 mi NE 6.9 mph - N/A   Unknown
2:55 AM 57.2 °F 53.6 °F 88% 30.42 in 6.2 mi ENE 8.1 mph - N/A   Unknown
3:25 AM 55.4 °F 53.6 °F 94% 30.42 in 6.2 mi ENE 8.1 mph - N/A   Unknown
3:55 AM 55.4 °F 51.8 °F 88% 30.42 in 6.2 mi ENE 6.9 mph - N/A   Unknown
4:25 AM 55.4 °F 51.8 °F 88% 30.42 in 6.2 mi ENE 6.9 mph - N/A   Unknown
4:55 AM 55.4 °F 51.8 °F 88% 30.42 in 6.2 mi ENE 5.8 mph - N/A   Partly Cloudy
5:25 AM 55.4 °F 51.8 °F 88% 30.42 in 6.2 mi East 5.8 mph - N/A   Partly Cloudy
5:55 AM 55.4 °F 51.8 °F 88% 30.42 in 6.2 mi East 6.9 mph - N/A   Partly Cloudy
6:25 AM 55.4 °F 51.8 °F 88% 30.42 in 6.2 mi ENE 6.9 mph - N/A   Unknown
6:55 AM 55.4 °F 51.8 °F 88% 30.42 in 6.2 mi East 4.6 mph - N/A   Unknown
7:25 AM 57.2 °F 51.8 °F 82% 30.42 in 6.2 mi East 6.9 mph - N/A   Unknown
7:55 AM 59.0 °F 51.8 °F 77% 30.42 in 6.2 mi East 8.1 mph - N/A   Partly Cloudy
8:25 AM 60.8 °F 53.6 °F 77% 30.45 in 6.2 mi East 6.9 mph - N/A   Unknown
8:55 AM 62.6 °F 53.6 °F 72% 30.45 in 6.2 mi East 5.8 mph - N/A   Unknown
9:25 AM 64.4 °F 55.4 °F 73% 30.42 in 6.2 mi East 4.6 mph - N/A   Unknown
9:55 AM 68.0 °F 59.0 °F 73% 30.42 in 6.2 mi ENE 5.8 mph - N/A   Scattered Clouds
10:25 AM 69.8 °F 59.0 °F 68% 30.42 in 6.2 mi East 4.6 mph - N/A   Unknown
10:55 AM 69.8 °F 59.0 °F 68% 30.42 in 6.2 mi NE 4.6 mph - N/A   Partly Cloudy
11:25 AM 71.6 °F 55.4 °F 57% 30.42 in 6.2 mi NE 4.6 mph - N/A   Unknown
11:55 AM 73.4 °F 59.0 °F 61% 30.42 in 6.2 mi NE 5.8 mph - N/A   Partly Cloudy
12:25 PM 73.4 °F 57.2 °F 57% 30.42 in 6.2 mi NNE 3.5 mph - N/A   Scattered Clouds
12:55 PM 75.2 °F 59.0 °F 57% 30.42 in 6.2 mi NNE 4.6 mph - N/A   Mostly Cloudy
1:25 PM 73.4 °F 55.4 °F 53% 30.42 in 6.2 mi NNE 3.5 mph - N/A   Scattered Clouds
1:55 PM 75.2 °F 55.4 °F 50% 30.42 in 6.2 mi ESE 4.6 mph - N/A   Partly Cloudy
2:25 PM 77.0 °F 55.4 °F 47% 30.42 in 6.2 mi ESE 5.8 mph - N/A   Unknown
2:55 PM 77.0 °F 55.4 °F 47% 30.39 in 6.2 mi NNE 3.5 mph - N/A   Unknown
3:25 PM 75.2 °F 53.6 °F 47% 30.39 in 6.2 mi East 6.9 mph - N/A   Partly Cloudy
3:55 PM 77.0 °F 55.4 °F 47% 30.39 in 6.2 mi East 5.8 mph - N/A   Partly Cloudy
4:25 PM 77.0 °F 53.6 °F 44% 30.39 in 6.2 mi East 6.9 mph - N/A   Partly Cloudy
4:55 PM 78.8 °F 55.4 °F 44% 30.39 in 6.2 mi NNE 5.8 mph - N/A   Unknown
5:25 PM 77.0 °F 53.6 °F 44% 30.39 in 6.2 mi ENE 8.1 mph - N/A   Partly Cloudy
5:55 PM 77.0 °F 55.4 °F 47% 30.39 in 6.2 mi ENE 8.1 mph - N/A   Unknown
6:25 PM 77.0 °F 53.6 °F 44% 30.39 in 6.2 mi ENE 9.2 mph - N/A   Partly Cloudy
6:55 PM 77.0 °F 53.6 °F 44% 30.39 in 6.2 mi NE 8.1 mph - N/A   Partly Cloudy
7:25 PM 75.2 °F 53.6 °F 47% 30.39 in 6.2 mi ENE 8.1 mph - N/A   Unknown
7:55 PM 75.2 °F 51.8 °F 44% 30.39 in 6.2 mi NE 9.2 mph - N/A   Scattered Clouds
8:25 PM 75.2 °F 53.6 °F 47% 30.39 in 6.2 mi NE 8.1 mph - N/A   Partly Cloudy
8:55 PM 73.4 °F 55.4 °F 53% 30.39 in 6.2 mi NE 6.9 mph - N/A   Unknown
9:25 PM 69.8 °F 55.4 °F 60% 30.39 in 6.2 mi NE 6.9 mph - N/A   Partly Cloudy
9:55 PM 64.4 °F 55.4 °F 73% 30.39 in 6.2 mi NNE 6.9 mph - N/A   Unknown
10:25 PM 62.6 °F 55.4 °F 77% 30.39 in 6.2 mi NNE 6.9 mph - N/A   Partly Cloudy
10:55 PM 60.8 °F 53.6 °F 77% 30.39 in 6.2 mi NNE 6.9 mph - N/A   Unknown
11:25 PM 60.8 °F 55.4 °F 82% 30.42 in 6.2 mi NE 6.9 mph - N/A   Unknown
11:55 PM 60.8 °F 55.4 °F 82% 30.42 in 6.2 mi NNE 6.9 mph - N/A   Unknown